KUIPER-00099

导读

KUIPER-00099是美国亚马逊公司“柯伊伯计划”的卫星互联网项目卫星,于北京时间2025年8月11日由SpaceX猎鹰9号火箭,从佛罗里达州卡纳维拉尔角太空军基地发射升空,与其他23颗同批次卫星一同进入近地预定轨道。 该卫星旨在参与构建全球卫星宽带网络,为全球提供高速稳定互联网接入服务,此次发射后柯伊伯计划在轨卫星总数达到102颗,项目最终计划部署超过3200颗卫星,与星链竞争全球卫星互联网市场。

Basic Information
目录编号:
65138
目录名称:
KUIPER-00099
国际标识:
2025-171G
轨道中心:
EARTH
卫星名称:
KUIPER-00099
卫星全名:
KUIPER-00099
卫星状态:
在轨 (已飞行400 天)
发射日期:
2025-08-11 UTC
国别 :
美国 (US)
星等 :
--
This satellite is enrolled in the Space Conjunction Data Service (SCDS) and the current flight risk assessment level is: No High Risk
Orbit Information
数据来源 国际轨道数据 AOE轨道数据
星历时间 2026-09-15T17:47:21+0800
12小时前
查看轨道信息
2026-09-14T09:00:00+0800
1天前
查看轨道信息
半长轴 7007.65km 7007.655km
偏心率 0.0000478 0.0000886
轨道倾角 51.903° 51.904°
近地点辐角 125.096° 127.730°
升交点赤经 34.175° 40.216°
平近点角 235.005° 149.084°
近地点 629.178km 628.897km
远地点 629.848km 630.139km
周期 97.301分钟 97.301分钟
每日圈数 14.799402 14.799386
Detailed Information
使用方式:
暂无
2D Orbit Map
3D Orbit Map
Orbit Altitude Analysis Chart
Orbit Inclination Analysis Chart
Orbit Comprehensive Analysis Chart
View Comprehensive Chart
Miss Distance Evolution Trend with All Objects Subscribe to Flight Safety Assessment
Collision Probability Evolution Trend with All Objects Subscribe to Flight Safety Assessment